Location: ???
(35.5616°N, 139.7977°E)
Time: 19:54:10
(UTC+00:00)

CBERS-1 - Pass Details

Date: 17 November 2025
Orbit: 765 x 772 km, 98.8° (Epoch: 08 December)

Event Time Altitude Azimuth Distance (km) Brightness Sun altitude
Rises 20:49:33 0° 8° (N) 3,251 7.1 -6.4°
Reaches altitude 10° 20:51:53 10° 5° (N) 2,319 6.4 -6.0°
Maximum altitude 20:56:54 61° 287° (WNW) 875 4.1 -5.0°
Drops below altitude 10° 21:01:54 10° 208° (SSW) 2,301 6.4 -4.1°
Sets 21:04:13 0° 204° (SSW) 3,222 7.2 -3.6°
